Flag for U.S.A. Weather past 2 weeks in West Palm Beach, Florida, U.S.A.

Now
68 °F

Passing clouds.


Feels Like: 68 °F
Forecast: 69 / 80 °F
Wind: 7 mph from Northwest

Location: Palm Beach International Airport

Current Time: Oct 26, 2014 at 2:15:11 AM

Latest Report: Oct 26, 2014 at 1:53 AM


Visibility: 10 mi

Pressure: 29.91 "Hg

Humidity: 90%

Dew point: 65 °F

Location of West Palm BeachLocation

Historic Weather in West Palm Beach — Graph

°F

West Palm Beach temperature yesterday

Maximum temperature yesterday: 82 °F (at 12:53 PM)
Minimum temperature yesterday: 65 °F (at 5:53 AM)
Average temperature yesterday: 74 °F

Past Weeks' High & Low Weather Summary

 TemperatureHumidityPressure
High88 °F (Oct 15, 1:53 PM)100% (Oct 21, 3:53 PM)30.08 "Hg (Oct 21, 3:53 PM)
Low64 °F (Oct 17, 4:53 AM)34% (Oct 17, 12:53 PM)29.82 "Hg (Oct 24, 4:53 PM)
Average78 °F72%29.95 "Hg
* Reported Oct 11 12:53 AM — Oct 26 12:53 AM, West Palm Beach, Weather by CustomWeather, © 2014

Note: Actual official high and low records may vary slightly from our data, if they occured in-between our weather recording intervals... More about our weather records

Advertising

West Palm Beach weather history for previous 24 hours

 ConditionsComfort  
Time TempWeatherWind HumidityBarometerVisibility
12:53 AM
Oct 26
67 °FClear.7 mph90%29.92 "Hg10 mi
11:53 PM
Oct 25
68 °FPassing clouds.7 mph87%29.93 "Hg10 mi
10:53 PM69 °FPassing clouds.7 mph87%29.93 "Hg10 mi
9:53 PM70 °FPassing clouds.7 mph81%29.94 "Hg10 mi
8:53 PM73 °FPassing clouds.7 mph74%29.93 "Hg10 mi
7:53 PM74 °FPassing clouds.9 mph74%29.92 "Hg10 mi
6:53 PM76 °FPassing clouds.10 mph69%29.90 "Hg10 mi
5:53 PM79 °FPassing clouds.13 mph60%29.88 "Hg10 mi
4:53 PM81 °FScattered clouds.12 mph54%29.88 "Hg10 mi
3:53 PM80 °FScattered clouds.14 mph52%29.88 "Hg10 mi
2:53 PM81 °FScattered clouds.14 mph53%29.88 "Hg10 mi
1:53 PM81 °FScattered clouds.12 mph53%29.90 "Hg10 mi
12:53 PM82 °FScattered clouds.13 mph46%29.91 "Hg10 mi
11:53 AM80 °FScattered clouds.12 mph52%29.92 "Hg10 mi
10:53 AM78 °FScattered clouds.10 mph58%29.93 "Hg10 mi
9:53 AM74 °FScattered clouds.12 mph69%29.92 "Hg10 mi
8:53 AM70 °FScattered clouds.10 mph76%29.92 "Hg10 mi
7:53 AM65 °FPassing clouds.9 mph91%29.90 "Hg10 mi
6:53 AM66 °FPassing clouds.8 mph87%29.88 "Hg10 mi
5:53 AM65 °FPassing clouds.8 mph91%29.86 "Hg10 mi
4:53 AM67 °FPassing clouds.7 mph87%29.85 "Hg10 mi
3:53 AM67 °FPassing clouds.8 mph90%29.85 "Hg10 mi
2:53 AM68 °FPassing clouds.8 mph90%29.86 "Hg10 mi
Weather by CustomWeather, © 2014

See weather overviewHow to use our weather pages